User: anonymous   Login
Location: Carri�res
(48.9069°N, 2.1792°E)
Time: 03:55:23
(UTC+00:00)
Language:

BREEZE-M DEB (TANK) - Orbit

View from above orbital plane
View from above orbital plane
View from above satellite
View from above satellite

Ground track
Ground track

The orbit data is extracted from the following two-line orbital elements,

1 35495U 09034C   21106.60520748  .00002055  00000-0  44002-3 0  9999
2 35495  49.5947 230.6473 5011215 150.3465 251.2215  5.58309687236224
Epoch (UTC): 16 April 2021 14:31:29
Eccentricity: 0.5011215
inclination: 49.5947°
perigee height: 318 km
apogee height: 13770 km
right ascension of ascending node: 230.6473°
argument of perigee: 150.3465°
revolutions per day: 5.58309687
mean anomaly at epoch: 251.2215°
orbit number at epoch: 23622

The dashed part of the orbit path shows where the satellite is in the earth's shadow,  

DLR